Weather History for North Adams, MA

Change the Weather History Date:

Friday, February 1, 2013

  Actual Average Record
Temperature  
Mean Temperature 20 °F -  
Max Temperature 24 °F 31 °F 53 °F (2012)
Min Temperature 15 °F 13 °F -4 °F (1999)
Degree Days  
Heating Degree Days 46    
Moisture  
Dew Point 8 °F    
Average Humidity 61    
Maximum Humidity 79    
Minimum Humidity 38    
Precipitation  
Precipitation 0.03 in - - ()
Sea Level Pressure  
Sea Level Pressure 29.94 in    
Wind  
Wind Speed 11 mph (West)    
Max Wind Speed 18 mph    
Max Gust Speed 28 mph    
Visibility 5 miles    
Events Snow    
Averages and records for this station are not official NWS values.
T = Trace of Precipitation, MM = Missing Value Source: NWS Daily Summary

Daily Weather History Graph

Daily Weather History Graph

Search for Another Location

Airport:

Trip Planner

Search our weather history database for the weather conditions in past years. The results will help you decide how hot, cold, wet, or windy it might be!

Date:

Astronomy

Feb. 01, 2013 Rise Set
Actual Time 7:06 AM EST 5:06 PM EST
Civil Twilight 6:36 AM EST 5:36 PM EST
Nautical Twilight 6:03 AM EST 6:10 PM EST
Astronomical Twilight 5:29 AM EST 6:43 PM EST
Moon 11:20 PM EST (2/1) 9:29 AM EST (2/1)
Length of Visible Light 10h 59m
Length of Day
9h 59m
Waning Gibbous, 70% of the Moon is Illuminated
Feb 1
Waning Gibbous
Feb 3
Last Quarter
Feb 10
New
Feb 17
First Quarter
Feb 25
Full

Hourly Weather History & Observations

Time (EST) Temp. Windchill Dew Point Humidity Pressure Visibility Wind Dir Wind Speed Gust Speed Precip Events Conditions
12:52 AM 24.1 °F 13.1 °F 12.0 °F 60% 29.64 in 10.0 mi West 11.5 mph 20.7 mph 0.00 in   Overcast
1:52 AM 24.1 °F 12.0 °F 10.9 °F 57% 29.65 in 10.0 mi West 13.8 mph 18.4 mph 0.00 in   Overcast
2:14 AM 23.0 °F 10.6 °F 12.2 °F 63% 29.64 in 2.5 mi West 13.8 mph 23.0 mph 0.00 in Snow Light Snow
2:25 AM 23.0 °F 8.7 °F 12.2 °F 63% 29.64 in 3.0 mi WSW 18.4 mph 25.3 mph 0.00 in Snow Light Snow
2:52 AM 23.0 °F 10.6 °F 10.0 °F 58% 29.67 in 10.0 mi West 13.8 mph 24.2 mph 0.00 in   Mostly Cloudy
3:52 AM 23.0 °F 11.7 °F 6.1 °F 48% 29.66 in 10.0 mi West 11.5 mph 27.6 mph N/A   Partly Cloudy
4:52 AM 23.0 °F 12.4 °F 6.1 °F 48% 29.68 in 10.0 mi West 10.4 mph 25.3 mph N/A   Overcast
5:52 AM 21.9 °F 9.8 °F 3.9 °F 46% 29.70 in 10.0 mi West 12.7 mph 20.7 mph N/A   Scattered Clouds
7:52 AM 21.9 °F 11.0 °F 3.0 °F 44% 29.78 in 10.0 mi West 10.4 mph - N/A   Overcast
8:52 AM 21.9 °F 10.4 °F 3.9 °F 46% 29.80 in 10.0 mi West 11.5 mph 21.9 mph N/A   Overcast
9:52 AM 23.0 °F 12.4 °F 6.1 °F 48% 29.83 in 10.0 mi West 10.4 mph 19.6 mph N/A   Overcast
10:52 AM 24.1 °F 12.5 °F 5.0 °F 44% 29.84 in 10.0 mi WNW 12.7 mph 24.2 mph N/A   Mostly Cloudy
11:52 AM 23.0 °F 11.1 °F 9.0 °F 55% 29.83 in 7.0 mi NNW 12.7 mph 19.6 mph 0.00 in Snow Light Snow
12:52 PM 24.1 °F 14.4 °F 1.9 °F 38% 29.82 in 10.0 mi West 9.2 mph 19.6 mph 0.00 in   Overcast
1:52 PM 24.1 °F 12.5 °F 1.9 °F 38% 29.84 in 10.0 mi WNW 12.7 mph 24.2 mph N/A   Overcast
2:52 PM 24.1 °F 12.5 °F 5.0 °F 44% 29.86 in 10.0 mi WNW 12.7 mph 20.7 mph N/A   Overcast
3:52 PM 23.0 °F 11.7 °F 6.1 °F 48% 29.90 in 10.0 mi West 11.5 mph 19.6 mph N/A   Overcast
4:52 PM 21.9 °F 9.2 °F 5.0 °F 48% 29.94 in 8.0 mi West 13.8 mph 23.0 mph N/A   Overcast
5:52 PM 21.0 °F 9.9 °F 3.9 °F 48% 29.99 in 10.0 mi West 10.4 mph 19.6 mph N/A   Overcast
6:52 PM 19.9 °F 7.3 °F 3.0 °F 48% 30.03 in 10.0 mi West 12.7 mph 18.4 mph N/A   Scattered Clouds
7:52 PM 19.0 °F 6.8 °F 1.9 °F 47% 30.06 in 10.0 mi West 11.5 mph - N/A   Mostly Cloudy
8:47 PM 17.6 °F 6.4 °F 6.8 °F 63% 30.04 in 2.0 mi West 9.2 mph 19.6 mph 0.00 in Snow Light Snow
8:52 PM 18.0 °F 6.9 °F 7.0 °F 62% 30.08 in 1.5 mi West 9.2 mph 18.4 mph 0.00 in Snow Light Snow
9:07 PM 17.6 °F 10.7 °F 8.6 °F 68% 30.05 in 2.5 mi WNW 4.6 mph - 0.00 in Snow Light Snow
9:22 PM 17.6 °F 9.3 °F 8.6 °F 68% 30.05 in 1.2 mi West 5.8 mph - 0.00 in Snow Light Snow
9:32 PM 17.6 °F 9.3 °F 10.4 °F 73% 30.05 in 0.8 mi West 5.8 mph - 0.00 in Snow Light Snow
9:39 PM 17.6 °F 8.2 °F 10.4 °F 73% 30.05 in 1.2 mi West 6.9 mph - 0.00 in Snow Light Snow
9:47 PM 17.6 °F 9.3 °F 10.4 °F 73% 30.05 in 0.8 mi West 5.8 mph - 0.00 in Snow Light Snow
9:52 PM 17.1 °F 11.7 °F 10.0 °F 74% 30.09 in 0.8 mi WNW 3.5 mph - 0.00 in Snow Light Snow
10:14 PM 17.6 °F 9.3 °F 10.4 °F 73% 30.06 in 0.5 mi West 5.8 mph - 0.01 in Snow Snow
10:21 PM 17.6 °F 9.3 °F 10.4 °F 73% 30.06 in 1.0 mi West 5.8 mph - 0.01 in Snow Light Snow
10:29 PM 17.6 °F 8.2 °F 10.4 °F 73% 30.06 in 1.5 mi West 6.9 mph - 0.01 in Snow Light Snow
10:35 PM 17.6 °F 8.2 °F 10.4 °F 73% 30.06 in 2.0 mi West 6.9 mph - 0.01 in Snow Light Snow
10:41 PM 17.6 °F 8.2 °F 10.4 °F 73% 30.06 in 5.0 mi West 6.9 mph - 0.01 in Snow Light Snow
10:52 PM 17.1 °F 5.8 °F 10.0 °F 74% 30.10 in 2.0 mi WNW 9.2 mph - 0.01 in Snow Light Snow
10:56 PM 17.6 °F 9.3 °F 10.4 °F 73% 30.07 in 1.2 mi WNW 5.8 mph - 0.00 in Snow Light Snow
11:06 PM 17.6 °F 9.3 °F 10.4 °F 73% 30.07 in 0.5 mi Variable 5.8 mph - 0.00 in Snow Snow
11:10 PM 17.6 °F 6.4 °F 10.4 °F 73% 30.08 in 0.2 mi NW 9.2 mph 18.4 mph 0.00 in Snow Heavy Snow
11:20 PM 15.8 °F 5.1 °F 10.4 °F 79% 30.08 in 0.2 mi WNW 8.1 mph - 0.01 in Snow Heavy Snow
11:33 PM 15.8 °F 4.2 °F 10.4 °F 79% 30.09 in 0.8 mi West 9.2 mph 19.6 mph 0.02 in Snow Light Snow
11:38 PM 15.8 °F 1.4 °F 8.6 °F 73% 30.09 in 1.2 mi West 13.8 mph 23.0 mph 0.02 in Snow Light Snow
11:41 PM 17.6 °F 6.4 °F 8.6 °F 68% 30.09 in 2.0 mi West 9.2 mph 23.0 mph 0.02 in Snow Light Snow
11:49 PM 17.6 °F 5.0 °F 6.8 °F 63% 30.10 in 7.0 mi West 11.5 mph - 0.02 in   Overcast
11:52 PM 17.1 °F 5.8 °F 7.0 °F 65% 30.14 in 8.0 mi West 9.2 mph - 0.02 in   Overcast